This is the latest recevied weather packets stored in our database for station/object SQ5LTL-2. If no packets are shown the sender has not sent any weather packets the latest 10 day(s).
| Time | Temp. | Humidity | Pressure | Rain* | Wind** | Luminosity | Snow |
|---|---|---|---|---|---|---|---|
| 1777266318 | 2.78° C | 51% | 1024 hPa | 0 mm | - | 79 W/m² | - |
| 1777266017 | 2.22° C | 54% | 1023.9 hPa | 0 mm | - | 68 W/m² | - |
| 1777265736 | 2.22° C | 56% | 1024 hPa | 0 mm | - | 61 W/m² | - |
| 1777265434 | 1.67° C | 58% | 1023.9 hPa | 0 mm | - | 54 W/m² | - |
| 1777265133 | 1.67° C | 61% | 1023.9 hPa | 0 mm | - | 47 W/m² | - |
| 1777264831 | 1.11° C | 61% | 1023.9 hPa | 0 mm | - | 38 W/m² | - |
| 1777264529 | 1.11° C | 63% | 1023.9 hPa | 0 mm | - | 30 W/m² | - |
| 1777264228 | 1.11° C | 64% | 1024 hPa | 0 mm | - | 27 W/m² | - |
| 1777263926 | 1.11° C | 63% | 1023.8 hPa | 0 mm | - | 24 W/m² | - |
| 1777263624 | 0.56° C | 64% | 1023.8 hPa | 0 mm | - | 20 W/m² | - |
| 1777263323 | 0.56° C | 64% | 1023.8 hPa | 0 mm | - | 16 W/m² | - |
| 1777263021 | 0.56° C | 66% | 1023.8 hPa | 0 mm | - | 13 W/m² | - |
| 1777262720 | 0° C | 67% | 1023.8 hPa | 0 mm | - | 12 W/m² | - |
| 1777262419 | 0.56° C | 66% | 1023.8 hPa | 0 mm | - | 10 W/m² | - |
| 1777262117 | 0.56° C | 63% | 1023.8 hPa | 0 mm | - | 9 W/m² | - |
| 1777261816 | 0° C | 66% | 1023.9 hPa | 0 mm | - | 7 W/m² | - |
| 1777261534 | 0° C | 67% | 1023.9 hPa | 0 mm | - | 5 W/m² | - |
| 1777261233 | -0.56° C | 71% | 1023.7 hPa | 0 mm | - | 6 W/m² | - |
| 1777260931 | -0.56° C | 74% | 1023.7 hPa | 0 mm | - | 5 W/m² | - |
| 1777260630 | -1.11° C | 73% | 1023.8 hPa | 0 mm | - | 4 W/m² | - |
| 1777260328 | -1.11° C | 73% | 1023.7 hPa | 0 mm | - | 3 W/m² | - |
| 1777260028 | -1.11° C | 73% | 1023.7 hPa | 0 mm | - | 2 W/m² | - |
| 1777259725 | -1.67° C | 74% | 1023.8 hPa | 0 mm | - | 1 W/m² | - |
| 1777259424 | -1.67° C | 75% | 1023.8 hPa | 0 mm | - | 1 W/m² | - |
| 1777259123 | -1.67° C | 74% | 1023.9 hPa | 0 mm | - | 0 W/m² | - |
* Rain latest hour (hover to see other rain measurements)
** Current wind speed in m/s (hover to see current wind gust speed)